Weather History for Safford, AZ

Change the Weather History Date:

Sunday, February 12, 2012

  Actual Average Record
Temperature  
Mean Temperature 56 °F -  
Max Temperature 64 °F 63 °F 81 °F (1951)
Min Temperature 48 °F 31 °F 17 °F (1965)
Degree Days  
Heating Degree Days 9    
Growing Degree Days 6 (Base 50)    
Moisture  
Dew Point 27 °F    
Average Humidity 35    
Maximum Humidity 48    
Minimum Humidity 20    
Precipitation  
Precipitation 0.00 in - - ()
Sea Level Pressure  
Sea Level Pressure 29.80 in    
Wind  
Wind Speed 13 mph (ENE)    
Max Wind Speed 24 mph    
Max Gust Speed 33 mph    
Visibility 10 miles    
Events      
Averages and records for this station are not official NWS values.
T = Trace of Precipitation, MM = Missing Value Source: NWS Daily Summary

Daily Weather History Graph

Daily Weather History Graph

Search for Another Location

Airport:

Trip Planner

Search our weather history database for the weather conditions in past years. The results will help you decide how hot, cold, wet, or windy it might be!

Date:

Astronomy

Feb. 12, 2012 Rise Set
Actual Time 7:05 AM MST 6:00 PM MST
Civil Twilight 6:39 AM MST 6:26 PM MST
Nautical Twilight 6:10 AM MST 6:55 PM MST
Astronomical Twilight 5:41 AM MST 7:24 PM MST
Moon 11:38 PM MST (2/12) 9:47 AM MST (2/12)
Length of Visible Light 11h 46m
Length of Day
10h 55m
Waning Gibbous, 71% of the Moon is Illuminated
Feb 12
Waning Gibbous
Feb 14
Last Quarter
Feb 21
New
Feb 29
First Quarter
Mar 8
Full

Hourly Weather History & Observations

Time (MST) Temp. Dew Point Humidity Pressure Visibility Wind Dir Wind Speed Gust Speed Precip Events Conditions
12:51 AM 54.0 °F 21.9 °F 29% 29.78 in 10.0 mi East 10.4 mph - N/A   Scattered Clouds
1:51 AM 57.0 °F 25.0 °F 29% 29.75 in 10.0 mi ESE 11.5 mph - N/A   Clear
2:51 AM 57.0 °F 28.9 °F 34% 29.76 in 10.0 mi SE 15.0 mph - N/A   Clear
3:51 AM 52.0 °F 27.0 °F 38% 29.78 in 10.0 mi SE 16.1 mph - N/A   Scattered Clouds
4:51 AM 52.0 °F 27.0 °F 38% 29.79 in 10.0 mi SE 16.1 mph - N/A   Clear
5:51 AM 50.0 °F 27.0 °F 41% 29.81 in 10.0 mi SE 16.1 mph - N/A   Overcast
6:51 AM 48.9 °F 26.1 °F 41% 29.85 in 10.0 mi SSE 10.4 mph - N/A   Scattered Clouds
7:51 AM 48.0 °F 26.1 °F 42% 29.86 in 10.0 mi SE 11.5 mph - N/A   Mostly Cloudy
8:51 AM 50.0 °F 26.1 °F 39% 29.87 in 10.0 mi ESE 12.7 mph - N/A   Partly Cloudy
9:51 AM 53.1 °F 26.1 °F 35% 29.86 in 10.0 mi ESE 19.6 mph - N/A   Scattered Clouds
10:51 AM 57.9 °F 26.1 °F 30% 29.86 in 10.0 mi East 13.8 mph 20.7 mph N/A   Partly Cloudy
11:51 AM 59.0 °F 26.1 °F 28% 29.83 in 10.0 mi ENE 9.2 mph - N/A   Partly Cloudy
12:51 PM 62.1 °F 27.0 °F 26% 29.77 in 10.0 mi ESE 8.1 mph - N/A   Partly Cloudy
1:51 PM 64.0 °F 27.0 °F 25% 29.71 in 10.0 mi Variable 5.8 mph - N/A   Scattered Clouds
2:51 PM 64.9 °F 23.0 °F 20% 29.70 in 10.0 mi West 5.8 mph - N/A   Mostly Cloudy
3:00 PM - - N/A% - - North - - N/A   Sand
3:51 PM 64.0 °F 27.0 °F 25% 29.70 in 10.0 mi NW 21.9 mph - N/A   Overcast
4:51 PM 62.1 °F 26.1 °F 25% 29.72 in 10.0 mi WNW 24.2 mph 33.4 mph N/A   Overcast
5:51 PM 60.1 °F 26.1 °F 27% 29.75 in 10.0 mi WNW 19.6 mph - N/A   Overcast
6:51 PM 55.9 °F 28.9 °F 36% 29.80 in 10.0 mi NW 16.1 mph - N/A   Mostly Cloudy
7:51 PM 54.0 °F 28.9 °F 38% 29.83 in 10.0 mi NW 10.4 mph - N/A   Clear
8:51 PM 52.0 °F 28.9 °F 41% 29.85 in 10.0 mi NW 11.5 mph - N/A   Clear
9:51 PM 48.9 °F 28.9 °F 46% 29.87 in 10.0 mi NNW 9.2 mph - N/A   Clear
10:51 PM 48.0 °F 28.9 °F 48% 29.87 in 10.0 mi NW 11.5 mph - N/A   Clear
11:51 PM 48.0 °F 28.9 °F 48% 29.88 in 10.0 mi NW 12.7 mph - N/A   Clear